Terminal Aerodrome Forecast
Issued by NWS

Home | Current Version | Previous Version | Text Only | Print | Product List | Glossary Off
Versions: 1 2 3 4 5 6 7 8 9 10 11 12 13 14 15 16 17

000
FTUS43 KABR 202327
TAFMBG
TAF
KMBG 202327Z 2100/2124 06010KT P6SM BKN120
     FM210700 VRB06KT P6SM BKN150=

USA.gov is the U.S. government's official web portal to all federal, state and local government web resources and services.